Regional Weather Roundup
Issued by NWS

Home | Current Version | Previous Version | Graphics & Text | Print | Product List | Glossary On
Versions: 1 2 3 4 5 6 7 8 9 10 11 12 13 14 15 16 17 18 19 20 21 22 23 24 25 26 27 28 29 30 31 32 33 34 35 36 37 38 39 40 41 42 43 44 45 46 47 48 49 50
000
ASUS43 KOAX 010710
RWRNE

WEATHER ROUNDUP FOR NEBRASKA
NATIONAL WEATHER SERVICE OMAHA NE
100 AM CST SUN FEB 01 2015

NOTES: SATELLITE DATA IS BEING USED TO AUGMENT CLOUD COVER ABOVE
       12000 FEET.
       "FAIR" INDICATES FEW OR NO CLOUDS BELOW 12,000 FEET WITH NO
       SIGNIFICANT WEATHER AND/OR OBSTRUCTIONS TO VISIBILITY.

  * THESE STATIONS DO NOT REPORT WEATHER SUCH AS RAIN...SNOW OR FOG.

NEZ001>004-019>022-054>056-010800-
NEBRASKA PANHANDLE

CITY           SKY/WX    TMP DP  RH WIND       PRES   REMARKS
SCOTTSBLUFF    CLOUDY    25  21  85 N10       30.04R WCI  15
ALLIANCE       CLOUDY    18  15  88 N12       30.03R WCI   5
CHADRON        LGT SNOW  15  12  88 NE10      30.14R FOG     WCI   2
KIMBALL        FLURRIES  23  22  98 N21       29.96R WCI   8
SIDNEY         MIX PCPN  20  17  88 N22G29    29.99R FOG     WCI   3
$$

NEZ057>060-069>072-079>082-010800-
SOUTHWEST NEBRASKA

CITY           SKY/WX    TMP DP  RH WIND       PRES   REMARKS
NORTH PLATTE   CLOUDY    18  14  84 N16G29    29.96R FOG     WCI   3
IMPERIAL       LGT SNOW  20  15  81 N22       29.97S WCI   3
LEXINGTON      LGT SNOW  22  19  89 N25       29.91R WCI   5
MCCOOK         LGT SNOW  23  19  85 N23       29.92R FOG     WCI   7
OGALLALA       CLOUDY    19  16  87 N13G20    30.01R WCI   6
$$

NEZ005>010-023>029-035>040-094-010800-
NORTH CENTRAL NEBRASKA

CITY           SKY/WX    TMP DP  RH WIND       PRES   REMARKS
VALENTINE      LGT SNOW  11   7  84 N17       30.11R VSB 3/4 WCI  -6
AINSWORTH      LGT SNOW  12   9  87 N24G32    30.06R WCI  -8
BROKEN BOW     LGT SNOW  20  16  84 N29       29.93R VSB 3/4 WCI   1
O`NEILL        LGT SNOW  18  16  91 N26       30.01R WCI  -1
ORD            LGT SNOW  22  18  85 N20G29    29.93R FOG     WCI   7
THEDFORD       LGT SNOW  15  12  88 N18G29    30.02R WCI  -1
$$

NEZ041-046>049-061>064-073>077-083>087-010800-
SOUTH CENTRAL NEBRASKA

CITY           SKY/WX    TMP DP  RH WIND       PRES   REMARKS
GRAND ISLAND   LGT SNOW  27  25  92 N22       29.86R FOG     WCI  13
AURORA         LGT SNOW  32  32 100 N14       29.82S WCI  22
HASTINGS       LGT SNOW  29  26  89 N22       29.82R FOG     WCI  15
HEBRON         LGT SNOW  32  31  97 CALM      29.79F
HOLDREGE       LGT SNOW  24  21  90 N18G26    29.86S WCI   9
KEARNEY *      CLOUDY    25  21  86 N24G31    29.86F WCI   9
YORK           LGT SNOW  32  32 100 N10       29.82F WCI  24
$$

NEZ011>018-030>034-042>045-010800-
NORTHEAST NEBRASKA

CITY           SKY/WX    TMP DP  RH WIND       PRES   REMARKS
NORFOLK        LGT SNOW  28  25  88 N17       29.89S VSB 3/4 WCI  16
ALBION         LGT SNOW  27  23  86 N15G22    29.89S WCI  15
BLAIR          LGT SNOW  33  32  96 NE7       29.83F WCI  27
FREMONT        LGT SNOW  33  33  99 NE3       29.85F
TEKAMAH        LGT SNOW  33  32  96 NE9       29.87F VSB 1   WCI  25
WAYNE          LGT SNOW  28  26  94 N17       29.91F WCI  15
$$

NEZ050>053-065>068-078-088>093-010800-
SOUTHEAST NEBRASKA

CITY           SKY/WX    TMP DP  RH WIND       PRES   REMARKS
LINCOLN        LGT SNOW  32  31  96 NE8       29.83F FOG     WCI  25
OMAHA EPPLEY   LGT SNOW  33  32  96 E5        29.84F VSB 3/4 WCI  29
BEATRICE       LGT SNOW  32  32 100 CALM      29.79F
FALLS CITY     LGT SNOW  32  31  96 SE6       29.81F FOG     WCI  26
NEBRASKA CITY  LGT SNOW  32  32 100 SE6       29.81F WCI  26
PLATTSMOUTH    LGT SNOW  32  31  96 NE3       29.82F
$$

NEZ044-045-051>053-067-010800-
OMAHA AREA

CITY           SKY/WX    TMP DP  RH WIND       PRES   REMARKS
OMAHA EPPLEY   LGT SNOW  33  32  96 E5        29.84F VSB 3/4 WCI  29
BLAIR          LGT SNOW  33  32  96 NE7       29.83F WCI  27
FREMONT        LGT SNOW  33  33  99 NE3       29.85F
MILLARD        LGT SNOW  33  32  96 CALM      29.84F
OFFUTT AFB     LGT SNOW  32  32  98 NE6       29.83F FOG     WCI  27
PLATTSMOUTH    LGT SNOW  32  31  96 NE3       29.82F
WAHOO          LGT SNOW  32  31  95 NE8       29.83F WCI  25
$$


USA.gov is the U.S. government's official web portal to all federal, state and local government web resources and services.